Miscellaneous Local Product
Issued by NWS North Platte, NE

Home | Current Version | Previous Version | Text Only | Print | Product List | Glossary On
Versions: 1 2 3 4 5 6 7 8 9 10 11 12 13 14 15 16 17 18 19 20 21 22 23 24 25 26 27 28 29 30 31 32 33 34 35 36 37 38 39 40 41 42 43 44 45 46 47 48 49 50
000
AXUS43 KLBF 171310
MISLBF


WESTERN AND NORTH CENTRAL NEBRASKA HOURLY WEATHER ROUNDUP
NATIONAL WEATHER SERVICE NORTH PLATTE NE
800 AM CDT WED SEP 17 2014

***STATIONS NOT REPORTING VARIABLES SUCH AS SKY/WEATHER OR
PRESSURE ARE PROVIDED BY THE NEBRASKA DEPARTMENT OF
ROADS...RAWS...AND APRS NETWORKS...AND ARE NOT UNDER
NATIONAL WEATHER SERVICE QUALITY CONTROL***

...OBSERVATIONS IN AND NEAR THE EASTERN PANHANDLE OF NEBRASKA...

CITY           SKY/WX    TMP DP  RH WIND       PRES   REMARKS
PINE RIDGE     PTCLDY    49  47  93 NW5       29.95S
CHADRON        PTCLDY    47  44  90 SW6       29.97R FOG
ALLIANCE       PTCLDY    45  44  97 CALM      29.97F
SIDNEY         PTCLDY    51  43  74 W10       30.00F
WHITECLAY        N/A     48  45  91 E3          N/A
RUSHVILLE        N/A     47  46  95 SE6         N/A
CRESCENT LAKE    N/A     54  51  89 CALM        N/A
LISCO            N/A     51  47  84 CALM        N/A
BIG SPRINGS      N/A     47  45  94 CALM        N/A
$$

...OBSERVATIONS IN NORTH CENTRAL NEBRASKA...

CITY           SKY/WX    TMP DP  RH WIND       PRES   REMARKS
VALENTINE      PTCLDY    48  47  96 CALM      29.94R
THEDFORD       PTCLDY    51  51  99 CALM      29.96S
AINSWORTH      FOG       50  50  99 CALM      29.94R VSB 1/4
O`NEILL        FOG       49  49 100 S3        29.93R VSB 1/4
ORD            FOG       45  45 100 CALM      29.93S VSB 1/4
BROKEN BOW     PTCLDY    47  46  97 CALM      29.94S FOG
SPRINGVIEW       N/A     46  45  95 CALM        N/A
ROSE             N/A     50  50  99 CALM        N/A
NEWPORT          N/A     47  47  99 SW5         N/A
COMSTOCK         N/A     51  51  99 CALM        N/A
CHAMBERS         N/A     52  51  97 CALM        N/A
$$

...OBSERVATIONS IN SOUTHWEST NEBRASKA AND FAR NORTHEAST COLORADO...

CITY           SKY/WX    TMP DP  RH WIND       PRES   REMARKS
WRAY           FAIR      52  49  89 SW7       29.98S
HOLYOKE        FAIR      52  46  82 CALM      29.98S
IMPERIAL       CLEAR     51  46  83 NW6       29.98R
OGALLALA       PTCLDY    49  48  99 CALM      29.97S FOG
NORTH PLATTE   FOG       49  49 100 CALM      29.96R VSB<1/4
MCCOOK         FOG       50  49  96 W3        29.95R VSB<1/4
LEXINGTON      CLEAR     46  45  97 NW5       29.94S FOG
PAXTON           N/A     51  49  94 CALM        N/A
SUTHERLAND       N/A     47  45  93 CALM        N/A
BRADY            N/A     47  45  94 CALM        N/A
GOTHENBURG       N/A     47  45  94 NW5         N/A
CALLAWAY         N/A     46  45  98 NW6         N/A
$$

...SOME WEATHER OBSERVATIONS FROM AROUND THE REGION...

CITY           SKY/WX    TMP DP  RH WIND       PRES   REMARKS
DENVER         PTCLDY    56  40  55 SW9       30.09R
LARAMIE        CLEAR     43  34  70 S8        30.22R
CHEYENNE       CLEAR     51  38  60 W9        30.13R
SCOTTSBLUFF    CLEAR     48  45  89 CALM      30.00R
RAPID CITY     CLEAR     51  39  63 NW10      29.96R
PIERRE         CLEAR     47  46  97 NE5       29.91R
WINNER         FAIR      52  49  89 SE3       29.91S
SIOUX FALLS    PTCLDY    51  49  92 CALM      29.93R
OMAHA          PTCLDY    59  53  80 CALM      29.93S
GRAND ISLAND   CLEAR     51  48  89 CALM      29.94S
KANSAS CITY    CLOUDY    63  61  93 SE3       29.93R
WICHITA        PTCLDY    68  65  90 SW6       29.91R FOG
HAYS           MOCLDY    55  52  88 W3        29.91S VSB 1/4
LIBERAL        PTCLDY    63  55  77 SW9       29.98R
GOODLAND       CLEAR     52  49  89 NW6       29.99R
$$



USA.gov is the U.S. government's official web portal to all federal, state and local government web resources and services.